Location: *
(41.0906°S, 99.4552°E)
Time: 03:53:56
(UTC+00:00)

Daily predictions for brighter satellites

Satellite Brightness Start Highest point End
(mag) Time Altitude Azimuth Time Altitude Azimuth Time Altitude Azimuth
Cosmos 2228 4.4 11:28:21 10° SSE 11:31:26 19° ESE 11:34:29 10° ENE
STARLINK-55 3.7 11:30:09 10° SW 11:33:15 37° SSE 11:36:20 10° ENE
Lacrosse 4 Rocket 2.1 11:29:39 10° N 11:33:24 32° ENE 11:37:07 10° SE
Lacrosse 5 2.7 11:29:07 10° N 11:33:35 31° NE 11:38:06 10° ESE
Envisat 3.3 11:28:38 10° SSE 11:33:37 47° E 11:38:32 10° N
Cosmos 1953 2.7 11:31:32 10° S 11:35:26 42° ESE 11:39:16 10° NNE
STARLINK-28 3.5 11:33:45 10° SW 11:36:55 43° SSE 11:40:03 10° ENE
Nadezhda 2 Rocket 4.5 11:35:56 10° N 11:42:00 66° E 11:48:12 10° SSE
CORIOLIS 4.2 11:36:54 10° SSE 11:42:18 58° ENE 11:47:38 10° N
STARLINK-33 3.5 11:39:22 10° SW 11:42:32 42° SSE 11:45:40 10° ENE
AQUARIUS 4.1 11:42:26 10° SSE 11:47:02 77° ENE 11:51:34 10° N
Cosmos 1371 Rocket 4.1 11:41:54 10° NNW 11:47:07 85° WSW 11:52:23 10° SSE
Cosmos 1470 3.5 11:43:14 10° SSW 11:47:09 59° W 11:50:58 10° N
SMAP 3.1 11:42:28 10° SSE 11:47:14 85° E 11:51:55 10° NNW
STARLINK-66 3.4 11:44:15 10° SW 11:47:27 47° SSE 11:50:24 11° ENE
STARLINK-1163 4.3 11:46:17 10° N 11:49:15 26° NE 11:51:48 13° ESE
Cosmos 1624 Rocket 4.1 11:45:22 10° NNW 11:50:44 90° ENE 11:56:09 10° SSE
STARLINK-58 4.3 11:48:47 10° SSW 11:51:29 24° SSE 11:53:31 14° ESE
STARLINK-64 4.3 11:50:49 10° SW 11:54:09 31° SSE 11:56:40 15° E
Okean O Rocket 3.1 11:50:04 10° S 11:54:16 41° WSW 11:58:24 10° NW
Shenzhou-11 Module 2.2 11:53:26 10° NW 11:55:57 41° NNE 11:57:34 18° E
